SPACEVAN-002

导读 | 豆包AI

SPACEVAN-002(NORAD编号68424)是和SpaceVan项目相关的小型卫星,该项目由Exotrail等公司合作推出,聚焦GTO轨道拼车发射服务,旨在将小卫星从地球同步转移轨道(GTO)精准运送至地球静止轨道(GEO),为小卫星运营商提供更具经济性的入轨方案。 该卫星已被列入北美防空司令部(NORAD)卫星星历编号目录,接受永久性太空跟踪,其轨道参数可通过标准两行轨道数据(TLE)进行精确计算与预测,为卫星的在轨运行管理和轨道监测提供基础数据支撑,是小卫星GEO部署探索实践的组成部分。

基本信息
目录编号:
68424
目录名称:
SPACEVAN-002
国际标识:
2026-067J
轨道中心:
EARTH
卫星名称:
SPACEVAN-002
卫星全名:
SPACEVAN-002
卫星状态:
在轨 (已飞行31 天)
发射日期:
2026-03-30 UTC
国别 :
法国 (FR)
星等 :
--
轨道信息
数据来源 国际轨道数据
星历时间: 2026-04-30T05:28:30+0800
7小时前
查看轨道信息
半长轴: 6890.342km
偏心率: 0.000185
轨道倾角: 97.449°
近地点辐角 151.433°
升交点赤经 79.061°
平近点角 208.700°
近地点: 510.93km
远地点: 513.48km
周期: 94.868分钟
每日圈数: 15.178946
详细信息
使用方式:
暂无
2D轨道图
3D轨道图
轨道高度分析图
轨道倾角分析图
轨道综合分析图
查看轨道综合分析图